Time,TemperatureF,DewpointF,PressureIn,WindDirection,WindDirectionDegrees,WindSpeedMPH,WindSpeedGustMPH,Humidity,HourlyPrecipIn,Conditions,Clouds,dailyrainin,SoftwareType,DateUTC
2013-04-11 00:03:00,41.0,39.0,-100.00,North,352,5.0,24.0,94,0.00,,,-99.99,,2013-04-11 04:03:00,
2013-04-11 00:13:00,40.0,37.0,-100.00,North,11,4.0,24.0,94,0.00,,,-99.99,,2013-04-11 04:13:00,
2013-04-11 00:23:00,40.0,37.0,-100.00,WNW,300,6.0,24.0,94,0.00,,,-99.99,,2013-04-11 04:23:00,
2013-04-11 00:33:00,41.0,37.0,-100.00,North,360,4.0,24.0,94,0.00,,,-99.99,,2013-04-11 04:33:00,
2013-04-11 00:43:00,40.0,37.0,-100.00,NW,317,4.0,24.0,94,0.00,,,-99.99,,2013-04-11 04:43:00,
2013-04-11 00:52:00,40.0,37.0,-100.00,North,8,1.0,24.0,94,0.00,,,-99.99,,2013-04-11 04:52:00,
2013-04-11 01:02:00,40.0,37.0,-100.00,NNW,331,1.0,24.0,94,0.00,,,-99.99,,2013-04-11 05:02:00,
2013-04-11 01:13:00,40.0,37.0,-100.00,NW,317,2.0,24.0,94,0.00,,,-99.99,,2013-04-11 05:13:00,
2013-04-11 01:23:00,40.0,37.0,-100.00,NNW,333,3.0,24.0,94,0.00,,,-99.99,,2013-04-11 05:23:00,
2013-04-11 01:32:00,40.0,37.0,-100.00,NNW,333,3.0,24.0,94,0.00,,,-99.99,,2013-04-11 05:32:00,
2013-04-11 01:42:00,40.0,37.0,-100.00,WNW,288,5.0,24.0,94,1.14,,,-99.99,,2013-04-11 05:42:00,
2013-04-11 01:52:00,40.0,37.0,-100.00,NW,326,6.0,24.0,94,1.14,,,-99.99,,2013-04-11 05:52:00,
2013-04-11 02:02:00,40.0,37.0,-100.00,NW,309,6.0,24.0,94,4.53,,,-99.99,,2013-04-11 06:02:00,
2013-04-11 02:12:00,40.0,37.0,-100.00,NW,313,7.0,24.0,94,1.14,,,-99.99,,2013-04-11 06:12:00,
2013-04-11 02:22:00,39.0,37.0,-100.00,NW,313,6.0,24.0,94,1.14,,,-99.99,,2013-04-11 06:22:00,
2013-04-11 02:32:00,40.0,37.0,-100.00,NW,321,7.0,7.0,94,0.00,,,-99.99,,2013-04-11 06:32:00,
2013-04-11 02:42:00,39.0,36.0,-100.00,NNW,341,6.0,8.0,94,1.14,,,-99.99,,2013-04-11 06:42:00,
2013-04-11 02:52:00,40.0,37.0,-100.00,North,355,5.0,8.0,95,6.22,,,-99.99,,2013-04-11 06:52:00,
2013-04-11 03:02:00,39.0,37.0,-100.00,NW,326,7.0,10.0,94,4.53,,,-99.99,,2013-04-11 07:02:00,
2013-04-11 03:12:00,39.0,37.0,-100.00,North,4,7.0,10.0,94,1.14,,,-99.99,,2013-04-11 07:12:00,
2013-04-11 03:22:00,39.0,37.0,-100.00,NNE,12,8.0,10.0,95,0.00,,,-99.99,,2013-04-11 07:22:00,
2013-04-11 03:32:00,39.0,37.0,-100.00,NNE,16,9.0,12.0,95,0.00,,,-99.99,,2013-04-11 07:32:00,
2013-04-11 03:43:00,39.0,37.0,-100.00,NNW,347,6.0,12.0,94,0.00,,,-99.99,,2013-04-11 07:43:00,
2013-04-11 03:52:00,39.0,37.0,-100.00,NW,323,9.0,12.0,95,1.14,,,-99.99,,2013-04-11 07:52:00,
2013-04-11 04:03:00,39.0,37.0,-100.00,NNW,344,8.0,12.0,95,23.23,,,-99.99,,2013-04-11 08:03:00,
2013-04-11 04:12:00,39.0,37.0,-100.00,NNE,14,11.0,17.0,95,1.14,,,-99.99,,2013-04-11 08:12:00,
2013-04-11 04:22:00,40.0,37.0,-100.00,NNE,21,9.0,17.0,94,0.00,,,-99.99,,2013-04-11 08:22:00,
2013-04-11 04:32:00,39.0,37.0,-100.00,North,358,6.0,17.0,94,0.00,,,-99.99,,2013-04-11 08:32:00,
2013-04-11 04:42:00,39.0,37.0,-100.00,NNW,344,6.0,17.0,94,0.00,,,-99.99,,2013-04-11 08:42:00,
2013-04-11 04:52:00,39.0,37.0,-100.00,North,7,5.0,17.0,94,0.00,,,-99.99,,2013-04-11 08:52:00,
2013-04-11 05:02:00,40.0,37.0,-100.00,NNW,347,5.0,17.0,94,1.14,,,-99.99,,2013-04-11 09:02:00,
2013-04-11 05:12:00,41.0,39.0,-100.00,NNW,343,5.0,17.0,95,1.14,,,-99.99,,2013-04-11 09:12:00,
2013-04-11 05:22:00,41.0,39.0,-100.00,NNW,338,6.0,17.0,95,17.01,,,-99.99,,2013-04-11 09:22:00,
2013-04-11 05:33:00,41.0,39.0,-100.00,North,354,6.0,17.0,95,0.00,,,-99.99,,2013-04-11 09:33:00,
2013-04-11 05:43:00,41.0,39.0,-100.00,North,354,6.0,17.0,95,0.00,,,-99.99,,2013-04-11 09:43:00,
2013-04-11 05:53:00,40.0,37.0,-100.00,North,358,7.0,17.0,95,0.00,,,-99.99,,2013-04-11 09:53:00,
2013-04-11 06:02:00,42.0,39.0,-100.00,NNE,18,7.0,17.0,95,0.00,,,-99.99,,2013-04-11 10:02:00,
2013-04-11 06:13:00,40.0,37.0,-100.00,North,7,6.0,17.0,94,0.00,,,-99.99,,2013-04-11 10:13:00,
2013-04-11 06:23:00,40.0,37.0,-100.00,North,7,6.0,17.0,94,0.00,,,-99.99,,2013-04-11 10:23:00,
2013-04-11 06:32:00,42.0,39.0,-100.00,NNE,21,5.0,17.0,95,0.00,,,-99.99,,2013-04-11 10:32:00,
2013-04-11 06:42:00,42.0,39.0,-100.00,NNE,21,5.0,17.0,95,0.00,,,-99.99,,2013-04-11 10:42:00,
2013-04-11 06:52:00,40.0,37.0,-100.00,NW,310,5.0,17.0,94,0.00,,,-99.99,,2013-04-11 10:52:00,
2013-04-11 07:03:00,40.0,37.0,-100.00,NW,310,5.0,17.0,94,0.00,,,-99.99,,2013-04-11 11:03:00,
2013-04-11 07:12:00,40.0,37.0,-100.00,North,358,3.0,17.0,94,0.00,,,-99.99,,2013-04-11 11:12:00,
2013-04-11 07:23:00,40.0,37.0,-100.00,NNW,330,3.0,17.0,94,0.00,,,-99.99,,2013-04-11 11:23:00,
2013-04-11 07:32:00,40.0,37.0,-100.00,NW,323,3.0,17.0,94,0.00,,,-99.99,,2013-04-11 11:32:00,
2013-04-11 07:43:00,42.0,39.0,-100.00,WNW,293,6.0,17.0,95,0.00,,,-99.99,,2013-04-11 11:43:00,
2013-04-11 07:52:00,42.0,39.0,-100.00,NNW,340,5.0,17.0,95,0.00,,,-99.99,,2013-04-11 11:52:00,
2013-04-11 08:02:00,41.0,39.0,-100.00,NNE,33,6.0,17.0,95,0.00,,,-99.99,,2013-04-11 12:02:00,
2013-04-11 08:13:00,41.0,39.0,-100.00,North,358,6.0,17.0,95,0.00,,,-99.99,,2013-04-11 12:13:00,
2013-04-11 08:23:00,41.0,39.0,-100.00,NNW,337,5.0,17.0,95,0.00,,,-99.99,,2013-04-11 12:23:00,
2013-04-11 08:32:00,41.0,39.0,-100.00,NNW,337,5.0,17.0,95,0.00,,,-99.99,,2013-04-11 12:32:00,
2013-04-11 08:43:00,41.0,39.0,-100.00,North,358,6.0,17.0,95,0.00,,,-99.99,,2013-04-11 12:43:00,
2013-04-11 08:52:00,41.0,39.0,-100.00,NW,313,7.0,17.0,95,0.00,,,-99.99,,2013-04-11 12:52:00,
2013-04-11 09:02:00,41.0,39.0,-100.00,SSW,208,8.0,17.0,95,0.00,,,-99.99,,2013-04-11 13:02:00,
2013-04-11 09:13:00,40.0,37.0,-100.00,NW,321,12.0,17.0,95,0.00,,,-99.99,,2013-04-11 13:13:00,
2013-04-11 09:23:00,39.0,37.0,-100.00,NW,324,15.0,17.0,95,14.17,,,-99.99,,2013-04-11 13:23:00,
2013-04-11 09:32:00,39.0,37.0,-100.00,NNW,333,17.0,22.0,95,9.06,,,-99.99,,2013-04-11 13:32:00,
2013-04-11 09:43:00,39.0,37.0,-100.00,North,358,16.0,22.0,95,0.00,,,-99.99,,2013-04-11 13:43:00,
2013-04-11 09:53:00,40.0,37.0,-100.00,NNW,345,14.0,22.0,95,0.00,,,-99.99,,2013-04-11 13:53:00,
2013-04-11 10:03:00,39.0,37.0,-100.00,North,4,14.0,22.0,95,0.00,,,-99.99,,2013-04-11 14:03:00,
2013-04-11 10:12:00,40.0,37.0,-100.00,NNE,19,13.0,22.0,94,0.00,,,-99.99,,2013-04-11 14:12:00,
2013-04-11 10:22:00,40.0,37.0,-100.00,North,9,13.0,22.0,94,0.00,,,-99.99,,2013-04-11 14:22:00,
2013-04-11 10:32:00,39.0,36.0,-100.00,North,0,11.0,22.0,93,0.00,,,-99.99,,2013-04-11 14:32:00,
2013-04-11 10:42:00,41.0,37.0,-100.00,NNE,16,9.0,22.0,94,0.00,,,-99.99,,2013-04-11 14:42:00,
2013-04-11 10:52:00,39.0,36.0,-100.00,North,1,6.0,22.0,93,0.00,,,-99.99,,2013-04-11 14:52:00,
2013-04-11 11:02:00,41.0,39.0,-100.00,NNW,344,6.0,22.0,94,0.00,,,-99.99,,2013-04-11 15:02:00,
2013-04-11 11:12:00,40.0,37.0,-100.00,NNE,19,6.0,22.0,93,0.00,,,-99.99,,2013-04-11 15:12:00,
2013-04-11 11:22:00,40.0,37.0,-100.00,NNW,343,6.0,22.0,91,0.00,,,-99.99,,2013-04-11 15:22:00,
2013-04-11 11:32:00,40.0,37.0,-100.00,North,354,7.0,22.0,91,0.00,,,-99.99,,2013-04-11 15:32:00,
2013-04-11 11:43:00,39.0,36.0,-100.00,North,2,7.0,22.0,91,0.00,,,-99.99,,2013-04-11 15:43:00,
2013-04-11 11:53:00,40.0,36.0,-100.00,NW,326,4.0,22.0,91,0.00,,,-99.99,,2013-04-11 15:53:00,
2013-04-11 12:02:00,39.0,36.0,-100.00,NNW,347,6.0,22.0,91,0.00,,,-99.99,,2013-04-11 16:02:00,
2013-04-11 12:13:00,39.0,36.0,-100.00,North,4,7.0,22.0,91,4.53,,,-99.99,,2013-04-11 16:13:00,
2013-04-11 12:23:00,38.0,36.0,-100.00,NW,317,10.0,22.0,91,0.00,,,-99.99,,2013-04-11 16:23:00,
2013-04-11 12:32:00,38.0,34.0,-100.00,NNE,15,10.0,22.0,91,0.00,,,-99.99,,2013-04-11 16:32:00,
2013-04-11 12:42:00,38.0,36.0,-100.00,North,351,7.0,22.0,93,0.00,,,-99.99,,2013-04-11 16:42:00,
2013-04-11 12:52:00,38.0,36.0,-100.00,NNW,343,7.0,22.0,93,0.00,,,-99.99,,2013-04-11 16:52:00,
2013-04-11 13:02:00,38.0,36.0,-100.00,NNW,338,9.0,22.0,93,0.00,,,-99.99,,2013-04-11 17:02:00,
2013-04-11 13:13:00,38.0,36.0,-100.00,NNW,331,7.0,22.0,93,0.00,,,-99.99,,2013-04-11 17:13:00,
2013-04-11 13:23:00,38.0,36.0,-100.00,NNW,347,9.0,22.0,93,0.00,,,-99.99,,2013-04-11 17:23:00,
2013-04-11 13:33:00,37.0,34.0,-100.00,NW,313,10.0,22.0,93,0.00,,,-99.99,,2013-04-11 17:33:00,
2013-04-11 13:43:00,37.0,34.0,-100.00,WSW,240,9.0,22.0,93,0.00,,,-99.99,,2013-04-11 17:43:00,
2013-04-11 13:52:00,38.0,36.0,-100.00,North,351,9.0,22.0,93,0.00,,,-99.99,,2013-04-11 17:52:00,
2013-04-11 14:03:00,38.0,36.0,-100.00,North,5,9.0,22.0,93,0.00,,,-99.99,,2013-04-11 18:03:00,
2013-04-11 14:13:00,38.0,36.0,-100.00,NNW,334,8.0,22.0,93,0.00,,,-99.99,,2013-04-11 18:13:00,
2013-04-11 14:23:00,39.0,36.0,-100.00,NNW,341,8.0,22.0,91,0.00,,,-99.99,,2013-04-11 18:23:00,
2013-04-11 14:33:00,38.0,36.0,-100.00,NNW,343,9.0,22.0,91,0.00,,,-99.99,,2013-04-11 18:33:00,
2013-04-11 14:43:00,38.0,36.0,-100.00,NW,326,9.0,22.0,91,0.00,,,-99.99,,2013-04-11 18:43:00,
2013-04-11 14:52:00,38.0,34.0,-100.00,North,357,9.0,22.0,91,0.00,,,-99.99,,2013-04-11 18:52:00,
2013-04-11 15:04:00,40.0,37.0,-100.00,North,5,7.0,22.0,93,0.00,,,-99.99,,2013-04-11 19:04:00,
2013-04-11 15:14:00,39.0,36.0,-100.00,North,4,11.0,22.0,93,0.00,,,-99.99,,2013-04-11 19:14:00,
2013-04-11 15:22:00,40.0,37.0,-100.00,NNE,15,10.0,22.0,93,0.00,,,-99.99,,2013-04-11 19:22:00,
2013-04-11 15:33:00,41.0,37.0,-100.00,NNE,18,9.0,22.0,93,0.00,,,-99.99,,2013-04-11 19:33:00,
2013-04-11 15:43:00,39.0,36.0,-100.00,North,8,9.0,22.0,91,0.00,,,-99.99,,2013-04-11 19:43:00,
2013-04-11 15:53:00,39.0,36.0,-100.00,North,0,7.0,22.0,91,0.00,,,-99.99,,2013-04-11 19:53:00,
2013-04-11 16:03:00,39.0,36.0,-100.00,North,357,8.0,22.0,91,0.00,,,-99.99,,2013-04-11 20:03:00,
2013-04-11 16:13:00,39.0,36.0,-100.00,NNW,336,8.0,22.0,91,0.00,,,-99.99,,2013-04-11 20:13:00,
2013-04-11 16:22:00,39.0,36.0,-100.00,NNW,347,7.0,22.0,91,0.00,,,-99.99,,2013-04-11 20:22:00,
2013-04-11 16:33:00,39.0,36.0,-100.00,NNW,341,7.0,22.0,91,0.00,,,-99.99,,2013-04-11 20:33:00,
2013-04-11 16:43:00,39.0,36.0,-100.00,NW,324,7.0,22.0,91,0.00,,,-99.99,,2013-04-11 20:43:00,
2013-04-11 16:52:00,39.0,36.0,-100.00,NNW,331,7.0,22.0,91,0.00,,,-99.99,,2013-04-11 20:52:00,
2013-04-11 17:03:00,38.0,36.0,-100.00,NNW,336,9.0,22.0,91,0.00,,,-99.99,,2013-04-11 21:03:00,
2013-04-11 17:12:00,38.0,36.0,-100.00,North,357,10.0,22.0,91,0.00,,,-99.99,,2013-04-11 21:12:00,
2013-04-11 17:23:00,38.0,36.0,-100.00,NNW,344,10.0,22.0,91,0.00,,,-99.99,,2013-04-11 21:23:00,
2013-04-11 17:33:00,38.0,36.0,-100.00,North,0,8.0,22.0,91,0.00,,,-99.99,,2013-04-11 21:33:00,
2013-04-11 17:43:00,39.0,36.0,-100.00,North,355,8.0,22.0,91,0.00,,,-99.99,,2013-04-11 21:43:00,
2013-04-11 17:53:00,39.0,36.0,-100.00,NNW,340,6.0,22.0,91,0.00,,,-99.99,,2013-04-11 21:53:00,
2013-04-11 18:03:00,39.0,36.0,-100.00,North,355,6.0,22.0,91,0.00,,,-99.99,,2013-04-11 22:03:00,
2013-04-11 18:13:00,41.0,37.0,-100.00,North,354,6.0,22.0,91,0.00,,,-99.99,,2013-04-11 22:13:00,
2013-04-11 18:23:00,40.0,36.0,-100.00,North,360,6.0,22.0,90,0.00,,,-99.99,,2013-04-11 22:23:00,
2013-04-11 18:33:00,40.0,36.0,-100.00,NNW,337,6.0,22.0,90,0.00,,,-99.99,,2013-04-11 22:33:00,
2013-04-11 18:44:00,40.0,37.0,-100.00,NNE,12,4.0,22.0,90,0.00,,,-99.99,,2013-04-11 22:44:00,
2013-04-11 18:53:00,39.0,36.0,-100.00,North,354,4.0,22.0,90,0.00,,,-99.99,,2013-04-11 22:53:00,
2013-04-11 19:03:00,40.0,37.0,-100.00,NNW,341,6.0,22.0,90,0.00,,,-99.99,,2013-04-11 23:03:00,
2013-04-11 19:13:00,39.0,36.0,-100.00,North,354,4.0,22.0,90,0.00,,,-99.99,,2013-04-11 23:13:00,
2013-04-11 19:23:00,39.0,36.0,-100.00,NNW,331,4.0,22.0,89,0.00,,,-99.99,,2013-04-11 23:23:00,
2013-04-11 19:33:00,39.0,36.0,-100.00,NNW,330,4.0,22.0,89,0.00,,,-99.99,,2013-04-11 23:33:00,
2013-04-11 19:43:00,39.0,36.0,-100.00,North,355,6.0,22.0,89,0.00,,,-99.99,,2013-04-11 23:43:00,
2013-04-11 19:53:00,39.0,36.0,-100.00,North,351,6.0,22.0,90,0.00,,,-99.99,,2013-04-11 23:53:00,
2013-04-11 20:02:00,40.0,36.0,-100.00,North,9,4.0,22.0,90,0.00,,,-99.99,,2013-04-12 00:02:00,
2013-04-11 20:12:00,41.0,37.0,-100.00,NNW,338,6.0,22.0,91,0.00,,,-99.99,,2013-04-12 00:12:00,
2013-04-11 20:22:00,41.0,37.0,-100.00,NNW,328,4.0,22.0,91,0.00,,,-99.99,,2013-04-12 00:22:00,
2013-04-11 20:32:00,41.0,37.0,-100.00,NNW,341,5.0,22.0,91,0.00,,,-99.99,,2013-04-12 00:32:00,
2013-04-11 20:42:00,41.0,37.0,-100.00,NNW,338,6.0,22.0,91,0.00,,,-99.99,,2013-04-12 00:42:00,
2013-04-11 20:52:00,41.0,37.0,-100.00,North,4,7.0,22.0,91,0.00,,,-99.99,,2013-04-12 00:52:00,
2013-04-11 21:02:00,41.0,37.0,-100.00,NNW,347,7.0,22.0,91,0.00,,,-99.99,,2013-04-12 01:02:00,
2013-04-11 21:12:00,40.0,37.0,-100.00,North,360,9.0,22.0,91,0.00,,,-99.99,,2013-04-12 01:12:00,
2013-04-11 21:22:00,40.0,37.0,-100.00,North,350,7.0,22.0,91,0.00,,,-99.99,,2013-04-12 01:22:00,
2013-04-11 21:32:00,40.0,36.0,-100.00,NNW,338,6.0,22.0,91,0.00,,,-99.99,,2013-04-12 01:32:00,
2013-04-11 21:42:00,40.0,37.0,-100.00,NNW,334,6.0,22.0,91,0.00,,,-99.99,,2013-04-12 01:42:00,
2013-04-11 21:52:00,41.0,37.0,-100.00,NW,320,6.0,22.0,93,0.00,,,-99.99,,2013-04-12 01:52:00,
2013-04-11 22:03:00,40.0,37.0,-100.00,North,9,6.0,22.0,91,0.00,,,-99.99,,2013-04-12 02:03:00,
2013-04-11 22:12:00,41.0,37.0,-100.00,North,9,6.0,22.0,91,0.00,,,-99.99,,2013-04-12 02:12:00,
2013-04-11 22:22:00,41.0,37.0,-100.00,NNE,21,7.0,22.0,91,0.00,,,-99.99,,2013-04-12 02:22:00,
2013-04-11 22:32:00,41.0,37.0,-100.00,North,11,7.0,22.0,91,0.00,,,-99.99,,2013-04-12 02:32:00,
2013-04-11 22:42:00,41.0,37.0,-100.00,NNW,343,7.0,22.0,91,0.00,,,-99.99,,2013-04-12 02:42:00,
2013-04-11 22:52:00,42.0,39.0,-100.00,NNW,327,8.0,22.0,91,0.00,,,-99.99,,2013-04-12 02:52:00,
2013-04-11 23:02:00,42.0,39.0,-100.00,North,2,6.0,22.0,91,0.00,,,-99.99,,2013-04-12 03:02:00,
2013-04-11 23:12:00,42.0,39.0,-100.00,NNW,348,6.0,22.0,91,0.00,,,-99.99,,2013-04-12 03:12:00,
2013-04-11 23:22:00,42.0,37.0,-100.00,North,2,6.0,22.0,90,0.00,,,-99.99,,2013-04-12 03:22:00,
2013-04-11 23:33:00,42.0,39.0,-100.00,North,2,6.0,22.0,91,0.00,,,-99.99,,2013-04-12 03:33:00,
2013-04-11 23:43:00,42.0,39.0,-100.00,North,2,6.0,22.0,91,0.00,,,-99.99,,2013-04-12 03:43:00,
2013-04-11 23:52:00,42.0,37.0,-100.00,North,1,7.0,22.0,90,0.00,,,-99.99,,2013-04-12 03:52:00,